Terminal Aerodrome Forecast
Issued by NWS

Home | Current Version | Previous Version | Text Only | Print | Product List | Glossary On
Versions: 1 2 3 4 5 6 7 8 9 10 11 12 13 14 15
000
FTUS44 KEPZ 232336
TAFLRU
TAF
KLRU 232336Z 2400/2424 25015G25KT P6SM FEW140 SCT250
     FM240500 25018G25KT P6SM VCSH OVC120
     FM241200 25018G25KT P6SM SCT050 BKN080
     FM242000 27020G30KT P6SM SCT060 SCT150=

USA.gov is the U.S. government's official web portal to all federal, state and local government web resources and services.